West Bend, WI

6:26 PM CST on November 11, 2019 (GMT -0600)
West Bend Municipal

Weather History for KETB - October, 2019

Change the Weather History Date:

Tuesday, October 22, 2019

  Actual Average Record
Temperature  
Mean Temperature 46 °F -  
Max Temperature 50 °F 58 °F 82 °F (1953)
Min Temperature 41 °F 37 °F 20 °F (1930)
Degree Days  
Heating Degree Days 20    
Moisture  
Dew Point 40 °F    
Average Humidity 85    
Maximum Humidity 100    
Minimum Humidity 66    
Precipitation  
Precipitation 0.00 in - - ()
Sea Level Pressure  
Sea Level Pressure 29.46 in    
Wind  
Wind Speed 14 mph (SW)    
Max Wind Speed 21 mph    
Max Gust Speed 33 mph    
Visibility 9 miles    
Events Rain    
Averages and records for this station are not official NWS values.
T = Trace of Precipitation, MM = Missing Value Source: NWS Daily Summary

Daily Weather History Graph

Daily Weather History Graph

Search for Another Location

Airport or City:

Astronomy

Oct. 22, 2019 Rise Set
Actual Time 7:14 AM CDT 5:58 PM CDT
Civil Twilight 6:45 AM CDT 6:27 PM CDT
Nautical Twilight 6:12 AM CDT 7:00 PM CDT
Astronomical Twilight 5:39 AM CDT 7:33 PM CDT
Moon 12:09 AM CDT (10/22) 3:21 PM CDT (10/22)
Length of Visible Light 11h 41m
Length of Day
10h 43m
Last Quarter, 37% of the Moon is Illuminated
Oct 22
Last Quarter
Oct 27
New
Nov 4
First Quarter
Nov 12
Full
Nov 19
Last Quarter

Hourly Weather History & Observations

Time (CDT) Temp. Windchill Dew Point Humidity Pressure Visibility Wind Dir Wind Speed Gust Speed Precip Events Conditions
12:15 AM 50.0 °F - 39.2 °F 66% 29.40 in 10.0 mi South 12.7 mph 17.3 mph N/A   Overcast
12:35 AM 50.0 °F - 39.2 °F 66% 29.39 in 10.0 mi South 10.4 mph 17.3 mph N/A   Mostly Cloudy
12:55 AM 50.0 °F - 39.2 °F 66% 29.39 in 10.0 mi South 12.7 mph 19.6 mph N/A   Mostly Cloudy
1:15 AM 50.0 °F - 41.0 °F 71% 29.38 in 10.0 mi South 12.7 mph 23.0 mph N/A   Overcast
1:35 AM 50.0 °F - 41.0 °F 71% 29.37 in 10.0 mi South 13.8 mph 19.6 mph N/A   Overcast
1:55 AM 50.0 °F - 41.0 °F 71% 29.36 in 10.0 mi South 15.0 mph 20.7 mph N/A   Overcast
2:15 AM 50.0 °F - 41.0 °F 71% 29.35 in 10.0 mi South 13.8 mph 23.0 mph N/A   Overcast
2:35 AM 50.0 °F - 41.0 °F 71% 29.35 in 10.0 mi SSW 18.4 mph 25.3 mph N/A   Overcast
2:55 AM 44.6 °F 38.1 °F 42.8 °F 93% 29.36 in 10.0 mi SSW 13.8 mph 24.2 mph N/A Rain Light Rain
3:15 AM 44.6 °F 38.1 °F 41.0 °F 87% 29.35 in 10.0 mi SSW 13.8 mph 25.3 mph N/A   Overcast
3:35 AM 44.6 °F 38.4 °F 41.0 °F 87% 29.33 in 10.0 mi South 12.7 mph 23.0 mph N/A   Overcast
3:55 AM 46.4 °F 40.4 °F 41.0 °F 81% 29.33 in 10.0 mi SSW 13.8 mph 23.0 mph N/A   Overcast
4:15 AM 46.4 °F 39.2 °F 41.0 °F 81% 29.32 in 10.0 mi SSW 18.4 mph 26.5 mph N/A   Overcast
4:35 AM 46.4 °F 38.7 °F 41.0 °F 81% 29.32 in 10.0 mi SSW 20.7 mph 27.6 mph N/A Rain Light Rain
4:55 AM 46.4 °F 39.0 °F 41.0 °F 81% 29.31 in 10.0 mi SSW 19.6 mph 31.1 mph N/A   Overcast
5:15 AM 44.6 °F 36.9 °F 42.8 °F 93% 29.31 in 10.0 mi SSW 18.4 mph 28.8 mph N/A Rain Light Rain
5:35 AM 44.6 °F 37.2 °F 42.8 °F 93% 29.30 in 10.0 mi SW 17.3 mph 27.6 mph N/A   Overcast
5:55 AM 44.6 °F 37.2 °F 41.0 °F 87% 29.30 in 10.0 mi SSW 17.3 mph 28.8 mph N/A Rain Light Rain
6:15 AM 44.6 °F 36.6 °F 41.0 °F 87% 29.31 in 10.0 mi SSW 19.6 mph 31.1 mph N/A   Overcast
6:35 AM 44.6 °F 36.6 °F 42.8 °F 93% 29.30 in 7.0 mi SW 19.6 mph 28.8 mph N/A Rain Light Rain
6:55 AM 44.6 °F 36.6 °F 41.0 °F 87% 29.31 in 10.0 mi SW 19.6 mph 33.4 mph N/A   Overcast
7:15 AM 44.6 °F 36.4 °F 41.0 °F 87% 29.31 in 10.0 mi SW 20.7 mph 31.1 mph N/A   Overcast
7:55 AM 44.6 °F 37.2 °F 41.0 °F 87% 29.33 in 10.0 mi SW 17.3 mph 31.1 mph N/A   Overcast
8:15 AM 44.6 °F 37.8 °F 41.0 °F 87% 29.34 in 10.0 mi SW 15.0 mph 27.6 mph N/A   Overcast
8:35 AM 44.6 °F 37.2 °F 41.0 °F 87% 29.35 in 10.0 mi SW 17.3 mph 21.9 mph N/A   Overcast
8:55 AM 44.6 °F 37.2 °F 41.0 °F 87% 29.36 in 10.0 mi WSW 17.3 mph 27.6 mph N/A   Overcast
9:15 AM 44.6 °F 38.1 °F 41.0 °F 87% 29.37 in 10.0 mi SW 13.8 mph - N/A   Overcast
9:35 AM 44.6 °F 36.9 °F 41.0 °F 87% 29.37 in 10.0 mi WSW 18.4 mph 33.4 mph N/A   Overcast
9:55 AM 44.6 °F 37.4 °F 41.0 °F 87% 29.38 in 10.0 mi WSW 16.1 mph 26.5 mph N/A   Overcast
10:15 AM 44.6 °F 36.9 °F 41.0 °F 87% 29.39 in 7.0 mi WSW 18.4 mph 27.6 mph N/A   Overcast
10:35 AM 44.6 °F 38.1 °F 41.0 °F 87% 29.40 in 7.0 mi WSW 13.8 mph 28.8 mph N/A   Overcast
10:55 AM 44.6 °F 38.1 °F 42.8 °F 93% 29.41 in 4.0 mi SW 13.8 mph 18.4 mph N/A   Drizzle
11:15 AM 44.6 °F 38.4 °F 42.8 °F 93% 29.43 in 7.0 mi WSW 12.7 mph 17.3 mph N/A   Light Drizzle
11:35 AM 44.6 °F 38.4 °F 41.0 °F 87% 29.43 in 10.0 mi WSW 12.7 mph 23.0 mph N/A   Overcast
11:55 AM 46.4 °F 38.7 °F 41.0 °F 81% 29.43 in 10.0 mi WSW 20.7 mph 32.2 mph N/A   Overcast
12:35 PM 46.4 °F 40.4 °F 37.4 °F 71% 29.45 in 10.0 mi WSW 13.8 mph 27.6 mph N/A   Overcast
12:55 PM 44.6 °F 36.9 °F 39.2 °F 81% 29.46 in 7.0 mi WSW 18.4 mph 27.6 mph N/A   Overcast
1:15 PM 44.6 °F 37.2 °F 41.0 °F 87% 29.46 in 7.0 mi WSW 17.3 mph 25.3 mph N/A   Drizzle
1:35 PM 44.6 °F 37.4 °F 41.0 °F 87% 29.47 in 10.0 mi WSW 16.1 mph 25.3 mph N/A   Overcast
1:55 PM 44.6 °F 38.4 °F 41.0 °F 87% 29.48 in 7.0 mi WSW 12.7 mph 25.3 mph N/A   Light Drizzle
2:15 PM 44.6 °F 38.1 °F 41.0 °F 87% 29.48 in 10.0 mi WSW 13.8 mph 21.9 mph N/A   Overcast
2:35 PM 42.8 °F 35.4 °F 41.0 °F 93% 29.50 in 5.0 mi WSW 15.0 mph 29.9 mph N/A   Light Drizzle
2:55 PM 42.8 °F 35.1 °F 39.2 °F 87% 29.51 in 7.0 mi WSW 16.1 mph 25.3 mph N/A Rain Rain
3:15 PM 42.8 °F 35.4 °F 41.0 °F 93% 29.52 in 10.0 mi WSW 15.0 mph 26.5 mph N/A   Drizzle
3:35 PM 42.8 °F 35.4 °F 39.2 °F 87% 29.53 in 10.0 mi WSW 15.0 mph 23.0 mph N/A   Overcast
3:55 PM 42.8 °F 35.4 °F 39.2 °F 87% 29.54 in 7.0 mi WSW 15.0 mph 23.0 mph N/A   Drizzle
4:15 PM 42.8 °F 34.0 °F 37.4 °F 81% 29.55 in 10.0 mi WSW 20.7 mph 28.8 mph N/A   Overcast
4:55 PM 42.8 °F 35.4 °F 37.4 °F 81% 29.56 in 10.0 mi West 15.0 mph 23.0 mph N/A   Overcast
5:15 PM 42.8 °F 35.4 °F 37.4 °F 81% 29.58 in 10.0 mi WSW 15.0 mph 24.2 mph N/A Rain Light Rain
5:35 PM 42.8 °F 35.1 °F 39.2 °F 87% 29.58 in 10.0 mi West 16.1 mph 23.0 mph N/A   Light Drizzle
5:55 PM 42.8 °F 35.8 °F 37.4 °F 81% 29.59 in 10.0 mi WSW 13.8 mph 25.3 mph N/A   Overcast
6:15 PM 42.8 °F 34.0 °F 37.4 °F 81% 29.60 in 10.0 mi West 20.7 mph 26.5 mph N/A   Overcast
6:35 PM 42.8 °F 37.5 °F 39.2 °F 87% 29.62 in 7.0 mi West 9.2 mph 23.0 mph N/A Rain Rain
6:55 PM 42.8 °F 37.5 °F 39.2 °F 87% 29.63 in 10.0 mi West 9.2 mph - N/A   Light Drizzle
7:15 PM 42.8 °F 36.6 °F 39.2 °F 87% 29.63 in 7.0 mi WSW 11.5 mph 21.9 mph N/A   Light Drizzle
7:35 PM 42.8 °F 37.0 °F 39.2 °F 87% 29.63 in 10.0 mi WSW 10.4 mph 18.4 mph N/A   Light Drizzle
7:55 PM 42.8 °F 35.8 °F 39.2 °F 87% 29.64 in 10.0 mi West 13.8 mph 20.7 mph N/A   Overcast
8:15 PM 42.8 °F 35.8 °F 39.2 °F 87% 29.64 in 7.0 mi West 13.8 mph 24.2 mph N/A   Heavy Drizzle
8:35 PM 42.8 °F 38.6 °F 39.2 °F 87% 29.64 in 7.0 mi West 6.9 mph 17.3 mph N/A Rain Rain
8:55 PM 41.0 °F 35.8 °F 41.0 °F 100% 29.65 in 10.0 mi West 8.1 mph - N/A   Light Drizzle
9:15 PM 41.0 °F 33.5 °F 41.0 °F 100% 29.65 in 7.0 mi West 13.8 mph 20.7 mph N/A Rain Rain
9:35 PM 42.8 °F 37.0 °F 39.2 °F 87% 29.65 in 10.0 mi West 10.4 mph - N/A   Overcast
10:15 PM 42.8 °F 37.5 °F 39.2 °F 87% 29.65 in 10.0 mi West 9.2 mph - N/A   Overcast
10:35 PM 42.8 °F 38.6 °F 39.2 °F 87% 29.66 in 10.0 mi WSW 6.9 mph - N/A   Overcast
10:55 PM 42.8 °F 38.0 °F 39.2 °F 87% 29.67 in 10.0 mi WNW 8.1 mph - N/A   Overcast
11:15 PM 42.8 °F 40.1 °F 39.2 °F 87% 29.66 in 10.0 mi West 4.6 mph - N/A   Overcast
11:55 PM 44.6 °F 39.7 °F 35.6 °F 71% 29.66 in 10.0 mi West 9.2 mph 16.1 mph N/A   Overcast